Achtergracht — PCCL — position and weather

sailwx.info

Track history (hours):
 
Tides and Currents Weather Stations Pressure Air Temp Water Temp Dewpoint Dewpoint Depression Visibility Wind Speed Wind Dir Waves Ship Positions

Achtergracht

Last reported at 2015-Mar-08 12:27 UTC. Time now 2015-Mar-30 04:26 UTC.
Position N 55°41' E 019°35'.
Warning: this ship's position is 21 days out of date.

Length 130 m; beam 19 m; draft 9 m.

Type: Cargo ship. MMSI: 244601000.

Date/timePositionNaut miles runAvg speedWind from/ knotsBaromVisibWave heightAir tempDewpointWater temp
2015-Mar-08 12:27N 55°41' E 019°35'8 8.7
2015-Mar-08 11:33N 55°40' E 019°21'9 8.7
2015-Mar-08 10:33N 55°39' E 019°05'9 8.5
2015-Mar-08 09:33N 55°38' E 018°50'9 8.5
2015-Mar-08 08:31N 55°37' E 018°35'9 8.7
2015-Mar-08 07:32N 55°36' E 018°20'18 8.6
2015-Mar-08 05:23N 55°34' E 017°48'7 8.8
2015-Mar-08 04:33N 55°34' E 017°35'9 8.8
2015-Mar-08 03:31N 55°33' E 017°19'52 8.7
2015-Mar-07 21:33N 55°28' E 015°47'9 8.7
2015-Mar-07 20:32N 55°27' E 015°31'9 8.9
2015-Mar-07 19:33N 55°26' E 015°16'9 9.0
2015-Mar-07 18:33N 55°25' E 015°01'9 9.0
2015-Mar-07 17:33N 55°24' E 014°45'8 7.5
2015-Mar-07 16:33N 55°19' E 014°34'9 8.7
2015-Mar-07 15:33N 55°13' E 014°25'1010.2
2015-Mar-07 14:34N 55°05' E 014°13'10 9.9
2015-Mar-07 13:33N 54°59' E 013°59'1010.3
2015-Mar-07 12:33N 54°56' E 013°42'1010.4
2015-Mar-07 11:33N 54°52' E 013°25'1010.2
2015-Mar-07 10:33N 54°49' E 013°08'1010.2
2015-Mar-07 09:33N 54°46' E 012°52'1010.2
2015-Mar-07 08:33N 54°42' E 012°35'1110.8
2015-Mar-07 07:33N 54°35' E 012°20'1010.4
2015-Mar-07 06:33N 54°26' E 012°12'1010.0
2015-Mar-07 05:33N 54°25' E 011°55'1010.4
2015-Mar-07 04:33N 54°28' E 011°38'9 9.2
2015-Mar-07 03:32N 54°32' E 011°24'9 9.2
2015-Mar-07 02:33N 54°35' E 011°09'10 9.7
2015-Mar-07 01:33N 54°35' E 010°53'10 9.8
2015-Mar-07 00:33N 54°34' E 010°36'1010.3
2015-Mar-06 23:33N 54°30' E 010°19'10 9.8
2015-Mar-06 22:33N 54°22' E 010°09'1 1.5
2015-Mar-06 21:33N 54°22' E 010°07'7 6.7
2015-Mar-06 20:33N 54°20' E 009°56'7 6.9
2015-Mar-06 19:33N 54°20' E 009°44'7 6.8
2015-Mar-06 18:33N 54°15' E 009°37'8 7.8
2015-Mar-06 17:33N 54°10' E 009°26'5 5.1
2015-Mar-06 16:33N 54°07' E 009°20'5 4.7
2015-Mar-06 15:34N 54°02' E 009°18'6 6.4
2015-Mar-06 14:33N 53°56' E 009°13'4 3.8
2015-Mar-06 13:33N 53°54' E 009°09'4 3.8
2015-Mar-06 12:33N 53°52' E 009°03'1313.2
2015-Mar-06 11:33N 53°54' E 008°41'1414.5
2015-Mar-06 10:33N 53°60' E 008°18'1313.4
2015-Mar-06 09:33N 53°58' E 007°55'1414.3
2015-Mar-06 08:33N 53°54' E 007°32'1414.1
2015-Mar-06 07:33N 53°51' E 007°08'1913.5
2015-Mar-06 06:07N 53°47' E 006°37'1012.7
2015-Mar-06 05:20N 53°45' E 006°20'1012.3
2015-Mar-06 04:32N 53°41' E 006°05'1212.0
2015-Mar-06 03:33N 53°38' E 005°46'1211.9
2015-Mar-06 02:33N 53°34' E 005°27'1111.4
2015-Mar-06 01:33N 53°30' E 005°08'1211.6
2015-Mar-06 00:33N 53°26' E 004°50'1110.9
2015-Mar-05 23:33N 53°18' E 004°38'1211.5
2015-Mar-05 22:32N 53°08' E 004°29'1111.4
2015-Mar-05 21:33N 52°57' E 004°20'1311.5
2015-Mar-05 20:26N 52°46' E 004°10'1011.5
2015-Mar-05 19:33N 52°36' E 004°06'1010.5
2015-Mar-05 18:33N 52°30' E 004°20'1010.1
2015-Mar-05 17:34N 52°28' E 004°36'1 1.0
2015-Mar-05 16:33N 52°28' E 004°38'3 3.4
2015-Mar-05 15:34N 52°26' E 004°42'3 2.6
2015-Mar-05 14:33N 52°25' E 004°46'0 0.0
2015-Mar-05 13:33N 52°25' E 004°46'0 0.0
2015-Mar-05 12:33N 52°25' E 004°46'0 0.0
2015-Mar-05 11:33N 52°25' E 004°46'0 0.0
2015-Mar-05 10:33N 52°25' E 004°46'0 0.0
2015-Mar-05 09:33N 52°25' E 004°46'0 0.0
2015-Mar-05 08:33N 52°25' E 004°46'0 0.0
2015-Mar-05 07:33N 52°25' E 004°46'0 0.0
2015-Mar-05 06:33N 52°25' E 004°46'0 0.0
2015-Mar-05 05:33N 52°25' E 004°46'0 0.0
2015-Mar-05 04:33N 52°25' E 004°46'0 0.0
2015-Mar-05 03:33N 52°25' E 004°46'0 0.0
2015-Mar-05 02:33N 52°25' E 004°46'0 0.0
2015-Mar-05 01:33N 52°25' E 004°46'0 0.0
2015-Mar-05 00:33N 52°25' E 004°46'0 0.0
2015-Mar-04 23:33N 52°25' E 004°46'0 0.0
2015-Mar-04 22:33N 52°25' E 004°46'0 0.0
2015-Mar-04 21:33N 52°25' E 004°46'0 0.0
2015-Mar-04 20:29N 52°25' E 004°46'0 0.0
2015-Mar-04 19:32N 52°25' E 004°46'0 0.0
2015-Mar-04 18:32N 52°25' E 004°46'0 0.0
2015-Mar-04 17:32N 52°25' E 004°46'0 0.0
2015-Mar-04 16:32N 52°25' E 004°46'0 0.0
2015-Mar-04 15:32N 52°25' E 004°46'0 0.0
2015-Mar-04 14:32N 52°25' E 004°46'0 0.0
2015-Mar-04 13:29N 52°25' E 004°46'0 0.0
2015-Mar-04 12:29N 52°25' E 004°46'0 0.0
2015-Mar-04 11:32N 52°25' E 004°46'0 0.0
2015-Mar-04 10:31N 52°25' E 004°46'0 0.0
2015-Mar-04 09:31N 52°25' E 004°46'0 0.0
2015-Mar-04 08:31N 52°25' E 004°46'0 0.0
2015-Mar-04 07:31N 52°25' E 004°46'0 0.0
2015-Mar-04 06:31N 52°25' E 004°46'0 0.0
2015-Mar-04 05:31N 52°25' E 004°46'0 0.0
2015-Mar-04 04:31N 52°25' E 004°46'0 0.0
2015-Mar-04 03:31N 52°25' E 004°46'0 0.0
2015-Mar-04 02:31N 52°25' E 004°46'0 0.0
2015-Mar-04 01:31N 52°25' E 004°46'0 0.0
2015-Mar-04 00:31N 52°25' E 004°46'0 0.0
2015-Mar-03 23:31N 52°25' E 004°46'0 0.0
2015-Mar-03 22:31N 52°25' E 004°46'0 0.0
2015-Mar-03 21:34N 52°25' E 004°46'0 0.0
2015-Mar-03 20:34N 52°25' E 004°46'0 0.0
2015-Mar-03 19:33N 52°25' E 004°46'0 0.0
2015-Mar-03 18:33N 52°25' E 004°46'0 0.0
2015-Mar-03 17:33N 52°25' E 004°46'0 0.0
2015-Mar-03 16:33N 52°25' E 004°46'0 0.0
2015-Mar-03 15:33N 52°25' E 004°46'0 0.2
2015-Mar-03 14:33N 52°25' E 004°46'6 6.1
2015-Mar-03 13:33N 52°28' E 004°37'1 1.4
2015-Mar-03 12:33N 52°28' E 004°35'4 3.6
2015-Mar-03 11:33N 52°28' E 004°29'7 7.2
2015-Mar-03 10:33N 52°28' E 004°17'1110.5
2015-Mar-03 09:32N 52°27' E 003°60'1210.7
2015-Mar-03 08:22N 52°25' E 003°40'6310.8
2015-Mar-03 02:33N 51°39' E 002°29'1111.2
2015-Mar-03 01:33N 51°31' E 002°17'1111.3
2015-Mar-03 00:33N 51°21' E 002°09'1110.9
2015-Mar-02 23:33N 51°12' E 001°59'1312.8
2015-Mar-02 22:33N 51°04' E 001°42'1313.5
2015-Mar-02 21:33N 50°55' E 001°28'8710.6
2015-Mar-02 13:22N 50°32' W 000°45'911.3
2015-Mar-02 12:34N 50°39' W 000°55'1111.2
2015-Mar-02 11:34N 50°48' W 001°07'1 1.2
2015-Mar-02 10:32N 50°49' W 001°06'0 0.0
2015-Mar-02 09:32N 50°49' W 001°06'0 0.0
2015-Mar-02 08:32N 50°49' W 001°06'0 0.0
2015-Mar-02 07:32N 50°49' W 001°06'2 1.6
2015-Mar-02 06:33N 50°47' W 001°06'7 7.0
2015-Mar-02 05:33N 50°42' W 000°59'7 6.7
2015-Mar-02 04:33N 50°35' W 000°58'7 7.4
2015-Mar-02 03:33N 50°28' W 000°59'  
2015-Feb-27 16:33N 43°20' W 003°02'0 0.0
2015-Feb-27 15:33N 43°20' W 003°02'0 0.0
2015-Feb-27 14:33N 43°20' W 003°02'0 0.0
2015-Feb-27 13:33N 43°20' W 003°02'0 0.0
2015-Feb-27 12:33N 43°20' W 003°02'0 0.0
2015-Feb-27 11:33N 43°20' W 003°02'0 0.0
2015-Feb-27 10:33N 43°20' W 003°02'0 0.0
2015-Feb-27 09:33N 43°20' W 003°02'0 0.0
2015-Feb-27 08:33N 43°20' W 003°02'0 0.0
2015-Feb-27 07:33N 43°20' W 003°02'0 0.0
2015-Feb-27 06:33N 43°20' W 003°02'0 0.2
2015-Feb-27 05:33N 43°20' W 003°02'4 4.4
2015-Feb-27 04:33N 43°24' W 003°05'1212.1
2015-Feb-27 03:33N 43°31' W 003°19'1412.8
2015-Feb-27 02:29N 43°37' W 003°36'3112.3
2015-Feb-27 00:00N 43°36' W 004°18'3212.8 340 / 171024.5 5.4 2.511.1 8.515.0
2015-Feb-26 21:30N 43°38' W 005°02'1212.6
2015-Feb-26 20:33N 43°38' W 005°18'1312.5
2015-Feb-26 19:33N 43°35' W 005°35'5 4.5
2015-Feb-26 18:32N 43°35' W 005°41'0 0.0
2015-Feb-26 17:32N 43°35' W 005°41'0 0.0
2015-Feb-26 16:20N 43°35' W 005°41'0 0.0
2015-Feb-26 15:32N 43°35' W 005°41'0 0.0
2015-Feb-26 14:26N 43°35' W 005°41'  
Track history (hours):
 
Tides and Currents Weather Stations Pressure Air Temp Water Temp Dewpoint Dewpoint Depression Visibility Wind Speed Wind Dir Waves Ship Positions

Achtergracht

Last reported at 2015-Mar-08 12:27 UTC. Time now 2015-Mar-30 04:26 UTC.
Position N 55°41' E 019°35'.
Warning: this ship's position is 21 days out of date.

Length 130 m; beam 19 m; draft 9 m.

Type: Cargo ship. MMSI: 244601000.

Date/timePositionNaut miles runAvg speedWind from/ knotsBaromVisibWave heightAir tempDewpointWater temp
2015-Mar-08 12:27N 55°41' E 019°35'8 8.7
2015-Mar-08 11:33N 55°40' E 019°21'9 8.7
2015-Mar-08 10:33N 55°39' E 019°05'9 8.5
2015-Mar-08 09:33N 55°38' E 018°50'9 8.5
2015-Mar-08 08:31N 55°37' E 018°35'9 8.7
2015-Mar-08 07:32N 55°36' E 018°20'18 8.6
2015-Mar-08 05:23N 55°34' E 017°48'7 8.8
2015-Mar-08 04:33N 55°34' E 017°35'9 8.8
2015-Mar-08 03:31N 55°33' E 017°19'52 8.7
2015-Mar-07 21:33N 55°28' E 015°47'9 8.7
2015-Mar-07 20:32N 55°27' E 015°31'9 8.9
2015-Mar-07 19:33N 55°26' E 015°16'9 9.0
2015-Mar-07 18:33N 55°25' E 015°01'9 9.0
2015-Mar-07 17:33N 55°24' E 014°45'8 7.5
2015-Mar-07 16:33N 55°19' E 014°34'9 8.7
2015-Mar-07 15:33N 55°13' E 014°25'1010.2
2015-Mar-07 14:34N 55°05' E 014°13'10 9.9
2015-Mar-07 13:33N 54°59' E 013°59'1010.3
2015-Mar-07 12:33N 54°56' E 013°42'1010.4
2015-Mar-07 11:33N 54°52' E 013°25'1010.2
2015-Mar-07 10:33N 54°49' E 013°08'1010.2
2015-Mar-07 09:33N 54°46' E 012°52'1010.2
2015-Mar-07 08:33N 54°42' E 012°35'1110.8
2015-Mar-07 07:33N 54°35' E 012°20'1010.4
2015-Mar-07 06:33N 54°26' E 012°12'1010.0
2015-Mar-07 05:33N 54°25' E 011°55'1010.4
2015-Mar-07 04:33N 54°28' E 011°38'9 9.2
2015-Mar-07 03:32N 54°32' E 011°24'9 9.2
2015-Mar-07 02:33N 54°35' E 011°09'10 9.7
2015-Mar-07 01:33N 54°35' E 010°53'10 9.8
2015-Mar-07 00:33N 54°34' E 010°36'1010.3
2015-Mar-06 23:33N 54°30' E 010°19'10 9.8
2015-Mar-06 22:33N 54°22' E 010°09'1 1.5
2015-Mar-06 21:33N 54°22' E 010°07'7 6.7
2015-Mar-06 20:33N 54°20' E 009°56'7 6.9
2015-Mar-06 19:33N 54°20' E 009°44'7 6.8
2015-Mar-06 18:33N 54°15' E 009°37'8 7.8
2015-Mar-06 17:33N 54°10' E 009°26'5 5.1
2015-Mar-06 16:33N 54°07' E 009°20'5 4.7
2015-Mar-06 15:34N 54°02' E 009°18'6 6.4
2015-Mar-06 14:33N 53°56' E 009°13'4 3.8
2015-Mar-06 13:33N 53°54' E 009°09'4 3.8
2015-Mar-06 12:33N 53°52' E 009°03'1313.2
2015-Mar-06 11:33N 53°54' E 008°41'1414.5
2015-Mar-06 10:33N 53°60' E 008°18'1313.4
2015-Mar-06 09:33N 53°58' E 007°55'1414.3
2015-Mar-06 08:33N 53°54' E 007°32'1414.1
2015-Mar-06 07:33N 53°51' E 007°08'1913.5
2015-Mar-06 06:07N 53°47' E 006°37'1012.7
2015-Mar-06 05:20N 53°45' E 006°20'1012.3
2015-Mar-06 04:32N 53°41' E 006°05'1212.0
2015-Mar-06 03:33N 53°38' E 005°46'1211.9
2015-Mar-06 02:33N 53°34' E 005°27'1111.4
2015-Mar-06 01:33N 53°30' E 005°08'1211.6
2015-Mar-06 00:33N 53°26' E 004°50'1110.9
2015-Mar-05 23:33N 53°18' E 004°38'1211.5
2015-Mar-05 22:32N 53°08' E 004°29'1111.4
2015-Mar-05 21:33N 52°57' E 004°20'1311.5
2015-Mar-05 20:26N 52°46' E 004°10'1011.5
2015-Mar-05 19:33N 52°36' E 004°06'1010.5
2015-Mar-05 18:33N 52°30' E 004°20'1010.1
2015-Mar-05 17:34N 52°28' E 004°36'1 1.0
2015-Mar-05 16:33N 52°28' E 004°38'3 3.4
2015-Mar-05 15:34N 52°26' E 004°42'3 2.6
2015-Mar-05 14:33N 52°25' E 004°46'0 0.0
2015-Mar-05 13:33N 52°25' E 004°46'0 0.0
2015-Mar-05 12:33N 52°25' E 004°46'0 0.0
2015-Mar-05 11:33N 52°25' E 004°46'0 0.0
2015-Mar-05 10:33N 52°25' E 004°46'0 0.0
2015-Mar-05 09:33N 52°25' E 004°46'0 0.0
2015-Mar-05 08:33N 52°25' E 004°46'0 0.0
2015-Mar-05 07:33N 52°25' E 004°46'0 0.0
2015-Mar-05 06:33N 52°25' E 004°46'0 0.0
2015-Mar-05 05:33N 52°25' E 004°46'0 0.0
2015-Mar-05 04:33N 52°25' E 004°46'0 0.0
2015-Mar-05 03:33N 52°25' E 004°46'0 0.0
2015-Mar-05 02:33N 52°25' E 004°46'0 0.0
2015-Mar-05 01:33N 52°25' E 004°46'0 0.0
2015-Mar-05 00:33N 52°25' E 004°46'0 0.0
2015-Mar-04 23:33N 52°25' E 004°46'0 0.0
2015-Mar-04 22:33N 52°25' E 004°46'0 0.0
2015-Mar-04 21:33N 52°25' E 004°46'0 0.0
2015-Mar-04 20:29N 52°25' E 004°46'0 0.0
2015-Mar-04 19:32N 52°25' E 004°46'0 0.0
2015-Mar-04 18:32N 52°25' E 004°46'0 0.0
2015-Mar-04 17:32N 52°25' E 004°46'0 0.0
2015-Mar-04 16:32N 52°25' E 004°46'0 0.0
2015-Mar-04 15:32N 52°25' E 004°46'0 0.0
2015-Mar-04 14:32N 52°25' E 004°46'0 0.0
2015-Mar-04 13:29N 52°25' E 004°46'0 0.0
2015-Mar-04 12:29N 52°25' E 004°46'0 0.0
2015-Mar-04 11:32N 52°25' E 004°46'0 0.0
2015-Mar-04 10:31N 52°25' E 004°46'0 0.0
2015-Mar-04 09:31N 52°25' E 004°46'0 0.0
2015-Mar-04 08:31N 52°25' E 004°46'0 0.0
2015-Mar-04 07:31N 52°25' E 004°46'0 0.0
2015-Mar-04 06:31N 52°25' E 004°46'0 0.0
2015-Mar-04 05:31N 52°25' E 004°46'0 0.0
2015-Mar-04 04:31N 52°25' E 004°46'0 0.0
2015-Mar-04 03:31N 52°25' E 004°46'0 0.0
2015-Mar-04 02:31N 52°25' E 004°46'0 0.0
2015-Mar-04 01:31N 52°25' E 004°46'0 0.0
2015-Mar-04 00:31N 52°25' E 004°46'0 0.0
2015-Mar-03 23:31N 52°25' E 004°46'0 0.0
2015-Mar-03 22:31N 52°25' E 004°46'0 0.0
2015-Mar-03 21:34N 52°25' E 004°46'0 0.0
2015-Mar-03 20:34N 52°25' E 004°46'0 0.0
2015-Mar-03 19:33N 52°25' E 004°46'0 0.0
2015-Mar-03 18:33N 52°25' E 004°46'0 0.0
2015-Mar-03 17:33N 52°25' E 004°46'0 0.0
2015-Mar-03 16:33N 52°25' E 004°46'0 0.0
2015-Mar-03 15:33N 52°25' E 004°46'0 0.2
2015-Mar-03 14:33N 52°25' E 004°46'6 6.1
2015-Mar-03 13:33N 52°28' E 004°37'1 1.4
2015-Mar-03 12:33N 52°28' E 004°35'4 3.6
2015-Mar-03 11:33N 52°28' E 004°29'7 7.2
2015-Mar-03 10:33N 52°28' E 004°17'1110.5
2015-Mar-03 09:32N 52°27' E 003°60'1210.7
2015-Mar-03 08:22N 52°25' E 003°40'6310.8
2015-Mar-03 02:33N 51°39' E 002°29'1111.2
2015-Mar-03 01:33N 51°31' E 002°17'1111.3
2015-Mar-03 00:33N 51°21' E 002°09'1110.9
2015-Mar-02 23:33N 51°12' E 001°59'1312.8
2015-Mar-02 22:33N 51°04' E 001°42'1313.5
2015-Mar-02 21:33N 50°55' E 001°28'8710.6
2015-Mar-02 13:22N 50°32' W 000°45'911.3
2015-Mar-02 12:34N 50°39' W 000°55'1111.2
2015-Mar-02 11:34N 50°48' W 001°07'1 1.2
2015-Mar-02 10:32N 50°49' W 001°06'0 0.0
2015-Mar-02 09:32N 50°49' W 001°06'0 0.0
2015-Mar-02 08:32N 50°49' W 001°06'0 0.0
2015-Mar-02 07:32N 50°49' W 001°06'2 1.6
2015-Mar-02 06:33N 50°47' W 001°06'7 7.0
2015-Mar-02 05:33N 50°42' W 000°59'7 6.7
2015-Mar-02 04:33N 50°35' W 000°58'7 7.4
2015-Mar-02 03:33N 50°28' W 000°59'  
2015-Feb-27 16:33N 43°20' W 003°02'0 0.0
2015-Feb-27 15:33N 43°20' W 003°02'0 0.0
2015-Feb-27 14:33N 43°20' W 003°02'0 0.0
2015-Feb-27 13:33N 43°20' W 003°02'0 0.0
2015-Feb-27 12:33N 43°20' W 003°02'0 0.0
2015-Feb-27 11:33N 43°20' W 003°02'0 0.0
2015-Feb-27 10:33N 43°20' W 003°02'0 0.0
2015-Feb-27 09:33N 43°20' W 003°02'0 0.0
2015-Feb-27 08:33N 43°20' W 003°02'0 0.0
2015-Feb-27 07:33N 43°20' W 003°02'0 0.0
2015-Feb-27 06:33N 43°20' W 003°02'0 0.2
2015-Feb-27 05:33N 43°20' W 003°02'4 4.4
2015-Feb-27 04:33N 43°24' W 003°05'1212.1
2015-Feb-27 03:33N 43°31' W 003°19'1412.8
2015-Feb-27 02:29N 43°37' W 003°36'3112.3
2015-Feb-27 00:00N 43°36' W 004°18'3212.8 340 / 171024.5 5.4 2.511.1 8.515.0
2015-Feb-26 21:30N 43°38' W 005°02'1212.6
2015-Feb-26 20:33N 43°38' W 005°18'1312.5
2015-Feb-26 19:33N 43°35' W 005°35'5 4.5
2015-Feb-26 18:32N 43°35' W 005°41'0 0.0
2015-Feb-26 17:32N 43°35' W 005°41'0 0.0
2015-Feb-26 16:20N 43°35' W 005°41'0 0.0
2015-Feb-26 15:32N 43°35' W 005°41'0 0.0
2015-Feb-26 14:26N 43°35' W 005°41'  

Dump ship's entire track history